Time,TemperatureF,DewpointF,PressureIn,WindDirection,WindDirectionDegrees,WindSpeedMPH,WindSpeedGustMPH,Humidity,HourlyPrecipIn,Conditions,Clouds,dailyrainin,SoftwareType,DateUTC
2013-05-13 00:00:00,56.5,45.3,30.16,SW,225,0.0,-999.0,66,0.00,,,0.00,Wunderground v.1.15,2013-05-13 05:00:00,
2013-05-13 00:05:00,56.5,45.3,30.16,SW,225,0.0,-999.0,66,0.00,,,0.00,Wunderground v.1.15,2013-05-13 05:05:00,
2013-05-13 00:10:00,56.5,45.3,30.16,SW,225,0.0,-999.0,66,0.00,,,0.00,Wunderground v.1.15,2013-05-13 05:10:00,
2013-05-13 00:15:00,56.5,45.3,30.16,SW,225,0.0,-999.0,66,0.00,,,0.00,Wunderground v.1.15,2013-05-13 05:15:00,
2013-05-13 00:20:00,56.5,45.3,30.16,SW,225,0.0,-999.0,66,0.00,,,0.00,Wunderground v.1.15,2013-05-13 05:20:00,
2013-05-13 00:25:00,55.5,45.5,30.16,WSW,248,0.0,-999.0,69,0.00,,,0.00,Wunderground v.1.15,2013-05-13 05:25:00,
2013-05-13 00:30:00,55.5,45.5,30.16,WSW,248,0.0,-999.0,69,0.00,,,0.00,Wunderground v.1.15,2013-05-13 05:30:00,
2013-05-13 00:35:00,55.5,45.5,30.16,WSW,248,0.0,-999.0,69,0.00,,,0.00,Wunderground v.1.15,2013-05-13 05:35:00,
2013-05-13 00:40:00,55.6,45.6,30.16,N/A,-737280,0.0,-999.0,69,0.00,,,0.00,Wunderground v.1.15,2013-05-13 05:40:00,
2013-05-13 00:45:00,55.6,45.6,30.16,N/A,-737280,0.0,-999.0,69,0.00,,,0.00,Wunderground v.1.15,2013-05-13 05:45:00,
2013-05-13 00:50:00,55.6,45.6,30.16,N/A,-737280,0.0,-999.0,69,0.00,,,0.00,Wunderground v.1.15,2013-05-13 05:50:00,
2013-05-13 00:55:00,55.3,46.4,30.16,SW,225,0.0,-999.0,72,0.00,,,0.00,Wunderground v.1.15,2013-05-13 05:55:00,
2013-05-13 01:00:00,55.3,46.4,30.16,SW,225,0.0,-999.0,72,0.00,,,0.00,Wunderground v.1.15,2013-05-13 06:00:00,
2013-05-13 01:05:00,55.3,46.4,30.16,SW,225,0.0,-999.0,72,0.00,,,0.00,Wunderground v.1.15,2013-05-13 06:05:00,
2013-05-13 01:10:00,55.1,47.3,30.15,SW,225,0.0,-999.0,75,0.00,,,0.00,Wunderground v.1.15,2013-05-13 06:10:00,
2013-05-13 01:15:00,55.1,47.3,30.15,SW,225,0.0,-999.0,75,0.00,,,0.00,Wunderground v.1.15,2013-05-13 06:15:00,
2013-05-13 01:20:00,55.1,47.3,30.15,SW,225,0.0,-999.0,75,0.00,,,0.00,Wunderground v.1.15,2013-05-13 06:20:00,
2013-05-13 01:25:00,54.8,46.7,30.16,SW,225,0.0,-999.0,74,0.00,,,0.00,Wunderground v.1.15,2013-05-13 06:25:00,
2013-05-13 01:30:00,54.8,46.7,30.16,SW,225,0.0,-999.0,74,0.00,,,0.00,Wunderground v.1.15,2013-05-13 06:30:00,
2013-05-13 01:35:00,54.8,46.7,30.16,SW,225,0.0,-999.0,74,0.00,,,0.00,Wunderground v.1.15,2013-05-13 06:35:00,
2013-05-13 01:40:00,54.5,46.4,30.16,N/A,-737280,0.0,-999.0,74,0.00,,,0.00,Wunderground v.1.15,2013-05-13 06:40:00,
2013-05-13 01:45:00,54.5,46.4,30.16,N/A,-737280,0.0,-999.0,74,0.00,,,0.00,Wunderground v.1.15,2013-05-13 06:45:00,
2013-05-13 01:50:00,54.5,46.4,30.16,N/A,-737280,0.0,-999.0,74,0.00,,,0.00,Wunderground v.1.15,2013-05-13 06:50:00,
2013-05-13 01:55:00,53.7,46.0,30.16,N/A,-737280,0.0,-999.0,75,0.00,,,0.00,Wunderground v.1.15,2013-05-13 06:55:00,
2013-05-13 02:00:00,53.7,46.0,30.16,N/A,-737280,0.0,-999.0,75,0.00,,,0.00,Wunderground v.1.15,2013-05-13 07:00:00,
2013-05-13 02:05:00,53.7,46.0,30.16,N/A,-737280,0.0,-999.0,75,0.00,,,0.00,Wunderground v.1.15,2013-05-13 07:05:00,
2013-05-13 02:10:00,53.2,45.5,30.15,N/A,-737280,0.0,-999.0,75,0.00,,,0.00,Wunderground v.1.15,2013-05-13 07:10:00,
2013-05-13 02:15:00,53.2,45.5,30.15,N/A,-737280,0.0,-999.0,75,0.00,,,0.00,Wunderground v.1.15,2013-05-13 07:15:00,
2013-05-13 02:20:00,53.2,45.5,30.15,N/A,-737280,0.0,-999.0,75,0.00,,,0.00,Wunderground v.1.15,2013-05-13 07:20:00,
2013-05-13 02:25:00,52.8,45.1,30.15,N/A,-737280,0.0,-999.0,75,0.00,,,0.00,Wunderground v.1.15,2013-05-13 07:25:00,
2013-05-13 02:30:00,52.8,45.1,30.15,N/A,-737280,0.0,-999.0,75,0.00,,,0.00,Wunderground v.1.15,2013-05-13 07:30:00,
2013-05-13 02:35:00,52.8,45.1,30.15,N/A,-737280,0.0,-999.0,75,0.00,,,0.00,Wunderground v.1.15,2013-05-13 07:35:00,
2013-05-13 02:40:00,52.2,45.2,30.15,N/A,-737280,0.0,-999.0,77,0.00,,,0.00,Wunderground v.1.15,2013-05-13 07:40:00,
2013-05-13 02:45:00,52.2,45.2,30.15,N/A,-737280,0.0,-999.0,77,0.00,,,0.00,Wunderground v.1.15,2013-05-13 07:45:00,
2013-05-13 02:50:00,52.2,45.2,30.15,N/A,-737280,0.0,-999.0,77,0.00,,,0.00,Wunderground v.1.15,2013-05-13 07:50:00,
2013-05-13 02:55:00,52.9,45.2,30.15,N/A,-737280,0.0,-999.0,75,0.00,,,0.00,Wunderground v.1.15,2013-05-13 07:55:00,
2013-05-13 03:00:00,52.9,45.2,30.15,N/A,-737280,0.0,-999.0,75,0.00,,,0.00,Wunderground v.1.15,2013-05-13 08:00:00,
2013-05-13 03:05:00,52.9,45.2,30.15,N/A,-737280,0.0,-999.0,75,0.00,,,0.00,Wunderground v.1.15,2013-05-13 08:05:00,
2013-05-13 03:10:00,53.4,45.3,30.15,WSW,248,0.0,-999.0,74,0.00,,,0.00,Wunderground v.1.15,2013-05-13 08:10:00,
2013-05-13 03:15:00,53.4,45.3,30.15,WSW,248,0.0,-999.0,74,0.00,,,0.00,Wunderground v.1.15,2013-05-13 08:15:00,
2013-05-13 03:20:00,53.4,45.3,30.15,WSW,248,0.0,-999.0,74,0.00,,,0.00,Wunderground v.1.15,2013-05-13 08:20:00,
2013-05-13 03:25:00,53.9,45.4,30.15,West,270,0.0,-999.0,73,0.00,,,0.00,Wunderground v.1.15,2013-05-13 08:25:00,
2013-05-13 03:30:00,53.9,45.4,30.15,West,270,0.0,-999.0,73,0.00,,,0.00,Wunderground v.1.15,2013-05-13 08:30:00,
2013-05-13 03:35:00,53.9,45.4,30.15,West,270,0.0,-999.0,73,0.00,,,0.00,Wunderground v.1.15,2013-05-13 08:35:00,
2013-05-13 03:40:00,51.7,45.7,30.15,West,270,0.0,-999.0,80,0.00,,,0.00,Wunderground v.1.15,2013-05-13 08:40:00,
2013-05-13 03:45:00,51.7,45.7,30.15,West,270,0.0,-999.0,80,0.00,,,0.00,Wunderground v.1.15,2013-05-13 08:45:00,
2013-05-13 03:50:00,51.7,45.7,30.15,West,270,0.0,-999.0,80,0.00,,,0.00,Wunderground v.1.15,2013-05-13 08:50:00,
2013-05-13 03:55:00,51.0,45.7,30.15,West,270,0.0,-999.0,82,0.00,,,0.00,Wunderground v.1.15,2013-05-13 08:55:00,
2013-05-13 04:00:00,51.0,45.7,30.15,West,270,0.0,-999.0,82,0.00,,,0.00,Wunderground v.1.15,2013-05-13 09:00:00,
2013-05-13 04:05:00,51.0,45.7,30.15,West,270,0.0,-999.0,82,0.00,,,0.00,Wunderground v.1.15,2013-05-13 09:05:00,
2013-05-13 04:10:00,51.3,45.3,30.16,West,270,0.0,-999.0,80,0.00,,,0.00,Wunderground v.1.15,2013-05-13 09:10:00,
2013-05-13 04:15:00,51.3,45.3,30.16,West,270,0.0,-999.0,80,0.00,,,0.00,Wunderground v.1.15,2013-05-13 09:15:00,
2013-05-13 04:20:00,51.3,45.3,30.16,West,270,0.0,-999.0,80,0.00,,,0.00,Wunderground v.1.15,2013-05-13 09:20:00,
2013-05-13 04:25:00,52.8,45.1,30.15,WSW,248,0.0,-999.0,75,0.00,,,0.00,Wunderground v.1.15,2013-05-13 09:25:00,
2013-05-13 04:30:00,52.8,45.1,30.15,WSW,248,0.0,-999.0,75,0.00,,,0.00,Wunderground v.1.15,2013-05-13 09:30:00,
2013-05-13 04:35:00,52.8,45.1,30.15,WSW,248,0.0,-999.0,75,0.00,,,0.00,Wunderground v.1.15,2013-05-13 09:35:00,
2013-05-13 04:40:00,54.2,45.7,30.15,SW,225,1.0,-999.0,73,0.00,,,0.00,Wunderground v.1.15,2013-05-13 09:40:00,
2013-05-13 04:45:00,54.2,45.7,30.15,SW,225,1.0,-999.0,73,0.00,,,0.00,Wunderground v.1.15,2013-05-13 09:45:00,
2013-05-13 04:50:00,54.2,45.7,30.15,SW,225,1.0,-999.0,73,0.00,,,0.00,Wunderground v.1.15,2013-05-13 09:50:00,
2013-05-13 04:55:00,54.2,45.7,30.15,SW,225,1.0,-999.0,73,0.00,,,0.00,Wunderground v.1.15,2013-05-13 09:55:00,
2013-05-13 05:00:00,54.2,45.7,30.15,SW,225,1.0,-999.0,73,0.00,,,0.00,Wunderground v.1.15,2013-05-13 10:00:00,
2013-05-13 05:05:00,54.2,45.7,30.15,SW,225,1.0,-999.0,73,0.00,,,0.00,Wunderground v.1.15,2013-05-13 10:05:00,
2013-05-13 05:10:00,54.1,45.6,30.15,SW,225,0.0,-999.0,73,0.00,,,0.00,Wunderground v.1.15,2013-05-13 10:10:00,
2013-05-13 05:15:00,54.1,45.6,30.15,SW,225,0.0,-999.0,73,0.00,,,0.00,Wunderground v.1.15,2013-05-13 10:15:00,
2013-05-13 05:20:00,54.1,45.6,30.15,SW,225,0.0,-999.0,73,0.00,,,0.00,Wunderground v.1.15,2013-05-13 10:20:00,
2013-05-13 05:25:00,53.8,45.3,30.16,SW,225,0.0,-999.0,73,0.00,,,0.00,Wunderground v.1.15,2013-05-13 10:25:00,
2013-05-13 05:30:00,53.8,45.3,30.16,SW,225,0.0,-999.0,73,0.00,,,0.00,Wunderground v.1.15,2013-05-13 10:30:00,
2013-05-13 05:35:00,53.8,45.3,30.16,SW,225,0.0,-999.0,73,0.00,,,0.00,Wunderground v.1.15,2013-05-13 10:35:00,
2013-05-13 05:40:00,51.4,45.1,30.16,WSW,248,0.0,-999.0,79,0.00,,,0.00,Wunderground v.1.15,2013-05-13 10:40:00,
2013-05-13 05:45:00,51.4,45.1,30.16,WSW,248,0.0,-999.0,79,0.00,,,0.00,Wunderground v.1.15,2013-05-13 10:45:00,
2013-05-13 05:50:00,51.4,45.1,30.16,WSW,248,0.0,-999.0,79,0.00,,,0.00,Wunderground v.1.15,2013-05-13 10:50:00,
2013-05-13 05:55:00,51.0,45.0,30.16,SW,225,0.0,-999.0,80,0.00,,,0.00,Wunderground v.1.15,2013-05-13 10:55:00,
2013-05-13 06:00:00,51.0,45.0,30.16,SW,225,0.0,-999.0,80,0.00,,,0.00,Wunderground v.1.15,2013-05-13 11:00:00,
2013-05-13 06:05:00,51.0,45.0,30.16,SW,225,0.0,-999.0,80,0.00,,,0.00,Wunderground v.1.15,2013-05-13 11:05:00,
2013-05-13 06:10:00,51.0,45.4,30.16,SW,225,0.0,-999.0,81,0.00,,,0.00,Wunderground v.1.15,2013-05-13 11:10:00,
2013-05-13 06:15:00,51.0,45.4,30.16,SW,225,0.0,-999.0,81,0.00,,,0.00,Wunderground v.1.15,2013-05-13 11:15:00,
2013-05-13 06:20:00,51.0,45.4,30.16,SW,225,0.0,-999.0,81,0.00,,,0.00,Wunderground v.1.15,2013-05-13 11:20:00,
2013-05-13 06:25:00,52.4,45.7,30.17,SW,225,1.0,-999.0,78,0.00,,,0.00,Wunderground v.1.15,2013-05-13 11:25:00,
2013-05-13 06:30:00,52.4,45.7,30.17,SW,225,1.0,-999.0,78,0.00,,,0.00,Wunderground v.1.15,2013-05-13 11:30:00,
2013-05-13 06:35:00,52.4,45.7,30.17,SW,225,1.0,-999.0,78,0.00,,,0.00,Wunderground v.1.15,2013-05-13 11:35:00,
2013-05-13 06:40:00,53.4,46.0,30.17,WSW,248,0.0,-999.0,76,0.00,,,0.00,Wunderground v.1.15,2013-05-13 11:40:00,
2013-05-13 06:45:00,53.4,46.0,30.17,WSW,248,0.0,-999.0,76,0.00,,,0.00,Wunderground v.1.15,2013-05-13 11:45:00,
2013-05-13 06:50:00,53.4,46.0,30.17,WSW,248,0.0,-999.0,76,0.00,,,0.00,Wunderground v.1.15,2013-05-13 11:50:00,
2013-05-13 06:55:00,53.7,46.7,30.18,WSW,248,0.0,-999.0,77,0.00,,,0.00,Wunderground v.1.15,2013-05-13 11:55:00,
2013-05-13 07:00:00,53.7,46.7,30.18,WSW,248,0.0,-999.0,77,0.00,,,0.00,Wunderground v.1.15,2013-05-13 12:00:00,
2013-05-13 07:05:00,53.7,46.7,30.18,WSW,248,0.0,-999.0,77,0.00,,,0.00,Wunderground v.1.15,2013-05-13 12:05:00,
2013-05-13 07:10:00,55.1,47.7,30.18,SW,225,1.0,-999.0,76,0.00,,,0.00,Wunderground v.1.15,2013-05-13 12:10:00,
2013-05-13 07:15:00,55.1,47.7,30.18,SW,225,1.0,-999.0,76,0.00,,,0.00,Wunderground v.1.15,2013-05-13 12:15:00,
2013-05-13 07:20:00,55.1,47.7,30.18,SW,225,1.0,-999.0,76,0.00,,,0.00,Wunderground v.1.15,2013-05-13 12:20:00,
2013-05-13 07:25:00,56.7,48.9,30.19,SW,225,1.0,-999.0,75,0.00,,,0.00,Wunderground v.1.15,2013-05-13 12:25:00,
2013-05-13 07:30:00,56.7,48.9,30.19,SW,225,1.0,-999.0,75,0.00,,,0.00,Wunderground v.1.15,2013-05-13 12:30:00,
2013-05-13 07:35:00,56.7,48.9,30.19,SW,225,1.0,-999.0,75,0.00,,,0.00,Wunderground v.1.15,2013-05-13 12:35:00,
2013-05-13 07:40:00,58.2,50.3,30.19,SW,225,1.0,-999.0,75,0.00,,,0.00,Wunderground v.1.15,2013-05-13 12:40:00,
2013-05-13 07:45:00,58.2,50.3,30.19,SW,225,1.0,-999.0,75,0.00,,,0.00,Wunderground v.1.15,2013-05-13 12:45:00,
2013-05-13 07:50:00,58.2,50.3,30.19,SW,225,1.0,-999.0,75,0.00,,,0.00,Wunderground v.1.15,2013-05-13 12:50:00,
2013-05-13 07:55:00,59.8,50.8,30.20,SW,225,2.0,-999.0,72,0.00,,,0.00,Wunderground v.1.15,2013-05-13 12:55:00,
2013-05-13 08:00:00,59.8,50.8,30.20,SW,225,2.0,-999.0,72,0.00,,,0.00,Wunderground v.1.15,2013-05-13 13:00:00,
2013-05-13 08:05:00,59.8,50.8,30.20,SW,225,2.0,-999.0,72,0.00,,,0.00,Wunderground v.1.15,2013-05-13 13:05:00,
2013-05-13 08:10:00,61.4,51.9,30.21,SW,225,3.0,-999.0,71,0.00,,,0.00,Wunderground v.1.15,2013-05-13 13:10:00,
2013-05-13 08:15:00,61.4,51.9,30.21,SW,225,3.0,-999.0,71,0.00,,,0.00,Wunderground v.1.15,2013-05-13 13:15:00,
2013-05-13 08:20:00,61.4,51.9,30.21,SW,225,3.0,-999.0,71,0.00,,,0.00,Wunderground v.1.15,2013-05-13 13:20:00,
2013-05-13 08:25:00,62.8,52.1,30.21,SW,225,5.0,-999.0,68,0.00,,,0.00,Wunderground v.1.15,2013-05-13 13:25:00,
2013-05-13 08:30:00,62.8,52.1,30.21,SW,225,5.0,-999.0,68,0.00,,,0.00,Wunderground v.1.15,2013-05-13 13:30:00,
2013-05-13 08:35:00,62.8,52.1,30.21,SW,225,5.0,-999.0,68,0.00,,,0.00,Wunderground v.1.15,2013-05-13 13:35:00,
2013-05-13 08:40:00,64.5,52.5,30.22,SW,225,6.0,-999.0,65,0.00,,,0.00,Wunderground v.1.15,2013-05-13 13:40:00,
2013-05-13 08:45:00,64.5,52.5,30.22,SW,225,6.0,-999.0,65,0.00,,,0.00,Wunderground v.1.15,2013-05-13 13:45:00,
2013-05-13 08:50:00,64.5,52.5,30.22,SW,225,6.0,-999.0,65,0.00,,,0.00,Wunderground v.1.15,2013-05-13 13:50:00,
2013-05-13 08:55:00,66.1,54.0,30.22,SW,225,6.0,-999.0,65,0.00,,,0.00,Wunderground v.1.15,2013-05-13 13:55:00,
2013-05-13 09:00:00,66.1,54.0,30.22,SW,225,6.0,-999.0,65,0.00,,,0.00,Wunderground v.1.15,2013-05-13 14:00:00,
2013-05-13 09:05:00,66.1,54.0,30.22,SW,225,6.0,-999.0,65,0.00,,,0.00,Wunderground v.1.15,2013-05-13 14:05:00,
2013-05-13 09:10:00,67.3,53.4,30.22,SW,225,8.0,-999.0,61,0.00,,,0.00,Wunderground v.1.15,2013-05-13 14:10:00,
2013-05-13 09:15:00,67.3,53.4,30.22,SW,225,8.0,-999.0,61,0.00,,,0.00,Wunderground v.1.15,2013-05-13 14:15:00,
2013-05-13 09:20:00,67.3,53.4,30.22,SW,225,8.0,-999.0,61,0.00,,,0.00,Wunderground v.1.15,2013-05-13 14:20:00,
2013-05-13 09:25:00,68.7,54.7,30.22,SW,225,7.0,-999.0,61,0.00,,,0.00,Wunderground v.1.15,2013-05-13 14:25:00,
2013-05-13 09:30:00,68.7,54.7,30.22,SW,225,7.0,-999.0,61,0.00,,,0.00,Wunderground v.1.15,2013-05-13 14:30:00,
2013-05-13 09:35:00,68.7,54.7,30.22,SW,225,7.0,-999.0,61,0.00,,,0.00,Wunderground v.1.15,2013-05-13 14:35:00,
2013-05-13 09:40:00,69.9,53.5,30.22,SW,225,8.0,-999.0,56,0.00,,,0.00,Wunderground v.1.15,2013-05-13 14:40:00,
2013-05-13 09:45:00,69.9,53.5,30.22,SW,225,8.0,-999.0,56,0.00,,,0.00,Wunderground v.1.15,2013-05-13 14:45:00,
2013-05-13 09:50:00,69.9,53.5,30.22,SW,225,8.0,-999.0,56,0.00,,,0.00,Wunderground v.1.15,2013-05-13 14:50:00,
2013-05-13 09:55:00,70.9,53.4,30.22,SW,225,9.0,-999.0,54,0.00,,,0.00,Wunderground v.1.15,2013-05-13 14:55:00,
2013-05-13 10:00:00,70.9,53.4,30.22,SW,225,9.0,-999.0,54,0.00,,,0.00,Wunderground v.1.15,2013-05-13 15:00:00,
2013-05-13 10:05:00,70.9,53.4,30.22,SW,225,9.0,-999.0,54,0.00,,,0.00,Wunderground v.1.15,2013-05-13 15:05:00,
2013-05-13 10:10:00,72.0,54.4,30.22,SW,225,8.0,-999.0,54,0.00,,,0.00,Wunderground v.1.15,2013-05-13 15:10:00,
2013-05-13 10:15:00,72.0,54.4,30.22,SW,225,8.0,-999.0,54,0.00,,,0.00,Wunderground v.1.15,2013-05-13 15:15:00,
2013-05-13 10:20:00,72.0,54.4,30.22,SW,225,8.0,-999.0,54,0.00,,,0.00,Wunderground v.1.15,2013-05-13 15:20:00,
2013-05-13 10:25:00,73.2,54.0,30.23,SW,225,8.0,-999.0,51,0.00,,,0.00,Wunderground v.1.15,2013-05-13 15:25:00,
2013-05-13 10:30:00,73.2,54.0,30.23,SW,225,8.0,-999.0,51,0.00,,,0.00,Wunderground v.1.15,2013-05-13 15:30:00,
2013-05-13 10:35:00,73.2,54.0,30.23,SW,225,8.0,-999.0,51,0.00,,,0.00,Wunderground v.1.15,2013-05-13 15:35:00,
2013-05-13 10:40:00,73.6,53.3,30.22,SW,225,9.0,-999.0,49,0.00,,,0.00,Wunderground v.1.15,2013-05-13 15:40:00,
2013-05-13 10:45:00,73.6,53.3,30.22,SW,225,9.0,-999.0,49,0.00,,,0.00,Wunderground v.1.15,2013-05-13 15:45:00,
2013-05-13 10:50:00,73.6,53.3,30.22,SW,225,9.0,-999.0,49,0.00,,,0.00,Wunderground v.1.15,2013-05-13 15:50:00,
2013-05-13 10:55:00,74.4,55.6,30.22,SW,225,7.0,-999.0,52,0.00,,,0.00,Wunderground v.1.15,2013-05-13 15:55:00,
2013-05-13 11:00:00,74.4,55.6,30.22,SW,225,7.0,-999.0,52,0.00,,,0.00,Wunderground v.1.15,2013-05-13 16:00:00,
2013-05-13 11:05:00,74.4,55.6,30.22,SW,225,7.0,-999.0,52,0.00,,,0.00,Wunderground v.1.15,2013-05-13 16:05:00,
2013-05-13 11:10:00,74.7,54.3,30.22,SW,225,6.0,-999.0,49,0.00,,,0.00,Wunderground v.1.15,2013-05-13 16:10:00,
2013-05-13 11:15:00,74.7,54.3,30.22,SW,225,6.0,-999.0,49,0.00,,,0.00,Wunderground v.1.15,2013-05-13 16:15:00,
2013-05-13 11:20:00,74.7,54.3,30.22,SW,225,6.0,-999.0,49,0.00,,,0.00,Wunderground v.1.15,2013-05-13 16:20:00,
2013-05-13 11:25:00,75.8,54.7,30.22,WSW,248,6.0,-999.0,48,0.00,,,0.00,Wunderground v.1.15,2013-05-13 16:25:00,
2013-05-13 11:30:00,75.8,54.7,30.22,WSW,248,6.0,-999.0,48,0.00,,,0.00,Wunderground v.1.15,2013-05-13 16:30:00,
2013-05-13 11:35:00,75.8,54.7,30.22,WSW,248,6.0,-999.0,48,0.00,,,0.00,Wunderground v.1.15,2013-05-13 16:35:00,
2013-05-13 11:40:00,76.6,54.9,30.22,SW,225,5.0,-999.0,47,0.00,,,0.00,Wunderground v.1.15,2013-05-13 16:40:00,
2013-05-13 11:45:00,76.6,54.9,30.22,SW,225,5.0,-999.0,47,0.00,,,0.00,Wunderground v.1.15,2013-05-13 16:45:00,
2013-05-13 11:50:00,76.6,54.9,30.22,SW,225,5.0,-999.0,47,0.00,,,0.00,Wunderground v.1.15,2013-05-13 16:50:00,
2013-05-13 11:55:00,77.6,55.8,30.21,SW,225,5.0,-999.0,47,0.00,,,0.00,Wunderground v.1.15,2013-05-13 16:55:00,
2013-05-13 12:00:00,77.6,55.8,30.21,SW,225,5.0,-999.0,47,0.00,,,0.00,Wunderground v.1.15,2013-05-13 17:00:00,
2013-05-13 12:05:00,77.6,55.8,30.21,SW,225,5.0,-999.0,47,0.00,,,0.00,Wunderground v.1.15,2013-05-13 17:05:00,
2013-05-13 12:10:00,78.3,52.7,30.21,SW,225,5.0,-999.0,41,0.00,,,0.00,Wunderground v.1.15,2013-05-13 17:10:00,
2013-05-13 12:15:00,78.3,52.7,30.21,SW,225,5.0,-999.0,41,0.00,,,0.00,Wunderground v.1.15,2013-05-13 17:15:00,
2013-05-13 12:20:00,78.3,52.7,30.21,SW,225,5.0,-999.0,41,0.00,,,0.00,Wunderground v.1.15,2013-05-13 17:20:00,
2013-05-13 12:25:00,79.0,51.2,30.20,SSW,203,6.0,-999.0,38,0.00,,,0.00,Wunderground v.1.15,2013-05-13 17:25:00,
2013-05-13 12:30:00,79.0,51.2,30.20,SSW,203,6.0,-999.0,38,0.00,,,0.00,Wunderground v.1.15,2013-05-13 17:30:00,
2013-05-13 12:35:00,79.0,51.2,30.20,SSW,203,6.0,-999.0,38,0.00,,,0.00,Wunderground v.1.15,2013-05-13 17:35:00,
2013-05-13 12:40:00,79.2,52.1,30.20,SSW,203,6.0,-999.0,39,0.00,,,0.00,Wunderground v.1.15,2013-05-13 17:40:00,
2013-05-13 12:45:00,79.2,52.1,30.20,SSW,203,6.0,-999.0,39,0.00,,,0.00,Wunderground v.1.15,2013-05-13 17:45:00,
2013-05-13 12:50:00,79.2,52.1,30.20,SSW,203,6.0,-999.0,39,0.00,,,0.00,Wunderground v.1.15,2013-05-13 17:50:00,
2013-05-13 12:55:00,80.0,54.2,30.19,SSW,203,6.0,-999.0,41,0.00,,,0.00,Wunderground v.1.15,2013-05-13 17:55:00,
2013-05-13 13:00:00,80.0,54.2,30.19,SSW,203,6.0,-999.0,41,0.00,,,0.00,Wunderground v.1.15,2013-05-13 18:00:00,
2013-05-13 13:05:00,80.0,54.2,30.19,SSW,203,6.0,-999.0,41,0.00,,,0.00,Wunderground v.1.15,2013-05-13 18:05:00,
2013-05-13 13:10:00,80.6,51.9,30.19,SW,225,7.0,-999.0,37,0.00,,,0.00,Wunderground v.1.15,2013-05-13 18:10:00,
2013-05-13 13:15:00,80.6,51.9,30.19,SW,225,7.0,-999.0,37,0.00,,,0.00,Wunderground v.1.15,2013-05-13 18:15:00,
2013-05-13 13:20:00,80.6,51.9,30.19,SW,225,7.0,-999.0,37,0.00,,,0.00,Wunderground v.1.15,2013-05-13 18:20:00,
2013-05-13 13:25:00,81.2,52.4,30.18,SW,225,5.0,-999.0,37,0.00,,,0.00,Wunderground v.1.15,2013-05-13 18:25:00,
2013-05-13 13:30:00,81.2,52.4,30.18,SW,225,5.0,-999.0,37,0.00,,,0.00,Wunderground v.1.15,2013-05-13 18:30:00,
2013-05-13 13:35:00,81.2,52.4,30.18,SW,225,5.0,-999.0,37,0.00,,,0.00,Wunderground v.1.15,2013-05-13 18:35:00,
2013-05-13 13:40:00,81.7,49.8,30.18,SW,225,5.0,-999.0,33,0.00,,,0.00,Wunderground v.1.15,2013-05-13 18:40:00,
2013-05-13 13:45:00,81.7,49.8,30.18,SW,225,5.0,-999.0,33,0.00,,,0.00,Wunderground v.1.15,2013-05-13 18:45:00,
2013-05-13 13:50:00,81.7,49.8,30.18,SW,225,5.0,-999.0,33,0.00,,,0.00,Wunderground v.1.15,2013-05-13 18:50:00,
2013-05-13 13:55:00,81.8,50.7,30.18,SW,225,7.0,-999.0,34,0.00,,,0.00,Wunderground v.1.15,2013-05-13 18:55:00,
2013-05-13 14:00:00,81.8,50.7,30.18,SW,225,7.0,-999.0,34,0.00,,,0.00,Wunderground v.1.15,2013-05-13 19:00:00,
2013-05-13 14:05:00,81.8,50.7,30.18,SW,225,7.0,-999.0,34,0.00,,,0.00,Wunderground v.1.15,2013-05-13 19:05:00,
2013-05-13 14:10:00,82.4,51.2,30.17,SW,225,6.0,-999.0,34,0.00,,,0.00,Wunderground v.1.15,2013-05-13 19:10:00,
2013-05-13 14:15:00,82.4,51.2,30.17,SW,225,6.0,-999.0,34,0.00,,,0.00,Wunderground v.1.15,2013-05-13 19:15:00,
2013-05-13 14:20:00,82.4,51.2,30.17,SW,225,6.0,-999.0,34,0.00,,,0.00,Wunderground v.1.15,2013-05-13 19:20:00,
2013-05-13 14:25:00,82.8,48.2,30.17,SW,225,6.0,-999.0,30,0.00,,,0.00,Wunderground v.1.15,2013-05-13 19:25:00,
2013-05-13 14:30:00,82.8,48.2,30.17,SW,225,6.0,-999.0,30,0.00,,,0.00,Wunderground v.1.15,2013-05-13 19:30:00,
2013-05-13 14:35:00,82.8,48.2,30.17,SW,225,6.0,-999.0,30,0.00,,,0.00,Wunderground v.1.15,2013-05-13 19:35:00,
2013-05-13 14:40:00,83.2,48.5,30.16,SW,225,6.0,-999.0,30,0.00,,,0.00,Wunderground v.1.15,2013-05-13 19:40:00,
2013-05-13 14:45:00,83.2,48.5,30.16,SW,225,6.0,-999.0,30,0.00,,,0.00,Wunderground v.1.15,2013-05-13 19:45:00,
2013-05-13 14:50:00,83.2,48.5,30.16,SW,225,6.0,-999.0,30,0.00,,,0.00,Wunderground v.1.15,2013-05-13 19:50:00,
2013-05-13 14:55:00,83.4,51.3,30.16,SW,225,6.0,-999.0,33,0.00,,,0.00,Wunderground v.1.15,2013-05-13 19:55:00,
2013-05-13 15:00:00,83.4,51.3,30.16,SW,225,6.0,-999.0,33,0.00,,,0.00,Wunderground v.1.15,2013-05-13 20:00:00,
2013-05-13 15:05:00,83.4,51.3,30.16,SW,225,6.0,-999.0,33,0.00,,,0.00,Wunderground v.1.15,2013-05-13 20:05:00,
2013-05-13 15:10:00,83.8,54.0,30.16,SW,225,6.0,-999.0,36,0.00,,,0.00,Wunderground v.1.15,2013-05-13 20:10:00,
2013-05-13 15:15:00,83.8,54.0,30.16,SW,225,6.0,-999.0,36,0.00,,,0.00,Wunderground v.1.15,2013-05-13 20:15:00,
2013-05-13 15:20:00,83.8,54.0,30.16,SW,225,6.0,-999.0,36,0.00,,,0.00,Wunderground v.1.15,2013-05-13 20:20:00,
2013-05-13 15:25:00,84.1,54.3,30.15,SW,225,6.0,-999.0,36,0.00,,,0.00,Wunderground v.1.15,2013-05-13 20:25:00,
2013-05-13 15:30:00,84.1,54.3,30.15,SW,225,6.0,-999.0,36,0.00,,,0.00,Wunderground v.1.15,2013-05-13 20:30:00,
2013-05-13 15:35:00,84.1,54.3,30.15,SW,225,6.0,-999.0,36,0.00,,,0.00,Wunderground v.1.15,2013-05-13 20:35:00,
2013-05-13 15:40:00,83.9,54.1,30.14,SW,225,6.0,-999.0,36,0.00,,,0.00,Wunderground v.1.15,2013-05-13 20:40:00,
2013-05-13 15:45:00,83.9,54.1,30.14,SW,225,6.0,-999.0,36,0.00,,,0.00,Wunderground v.1.15,2013-05-13 20:45:00,
2013-05-13 15:50:00,83.9,54.1,30.14,SW,225,6.0,-999.0,36,0.00,,,0.00,Wunderground v.1.15,2013-05-13 20:50:00,
2013-05-13 15:55:00,84.0,55.7,30.14,SW,225,7.0,-999.0,38,0.00,,,0.00,Wunderground v.1.15,2013-05-13 20:55:00,
2013-05-13 16:00:00,84.0,55.7,30.14,SW,225,7.0,-999.0,38,0.00,,,0.00,Wunderground v.1.15,2013-05-13 21:00:00,
2013-05-13 16:05:00,84.0,55.7,30.14,SW,225,7.0,-999.0,38,0.00,,,0.00,Wunderground v.1.15,2013-05-13 21:05:00,
2013-05-13 16:10:00,84.1,51.9,30.13,SSW,203,7.0,-999.0,33,0.00,,,0.00,Wunderground v.1.15,2013-05-13 21:10:00,
2013-05-13 16:15:00,84.1,51.9,30.13,SSW,203,7.0,-999.0,33,0.00,,,0.00,Wunderground v.1.15,2013-05-13 21:15:00,
2013-05-13 16:20:00,84.1,51.9,30.13,SSW,203,7.0,-999.0,33,0.00,,,0.00,Wunderground v.1.15,2013-05-13 21:20:00,
2013-05-13 16:25:00,84.4,53.0,30.13,SW,225,8.0,-999.0,34,0.00,,,0.00,Wunderground v.1.15,2013-05-13 21:25:00,
2013-05-13 16:30:00,84.4,53.0,30.13,SW,225,8.0,-999.0,34,0.00,,,0.00,Wunderground v.1.15,2013-05-13 21:30:00,
2013-05-13 16:35:00,84.4,53.0,30.13,SW,225,8.0,-999.0,34,0.00,,,0.00,Wunderground v.1.15,2013-05-13 21:35:00,
2013-05-13 16:40:00,84.3,50.4,30.13,SSW,203,7.0,-999.0,31,0.00,,,0.00,Wunderground v.1.15,2013-05-13 21:40:00,
2013-05-13 16:45:00,84.3,50.4,30.13,SSW,203,7.0,-999.0,31,0.00,,,0.00,Wunderground v.1.15,2013-05-13 21:45:00,
2013-05-13 16:50:00,84.3,50.4,30.13,SSW,203,7.0,-999.0,31,0.00,,,0.00,Wunderground v.1.15,2013-05-13 21:50:00,
2013-05-13 16:55:00,84.3,52.1,30.12,SSW,203,8.0,-999.0,33,0.00,,,0.00,Wunderground v.1.15,2013-05-13 21:55:00,
2013-05-13 17:00:00,84.3,52.1,30.12,SSW,203,8.0,-999.0,33,0.00,,,0.00,Wunderground v.1.15,2013-05-13 22:00:00,
2013-05-13 17:05:00,84.3,52.1,30.12,SSW,203,8.0,-999.0,33,0.00,,,0.00,Wunderground v.1.15,2013-05-13 22:05:00,
2013-05-13 17:10:00,84.1,51.9,30.12,SSW,203,7.0,-999.0,33,0.00,,,0.00,Wunderground v.1.15,2013-05-13 22:10:00,
2013-05-13 17:15:00,84.1,51.9,30.12,SSW,203,7.0,-999.0,33,0.00,,,0.00,Wunderground v.1.15,2013-05-13 22:15:00,
2013-05-13 17:20:00,84.1,51.9,30.12,SSW,203,7.0,-999.0,33,0.00,,,0.00,Wunderground v.1.15,2013-05-13 22:20:00,
2013-05-13 17:25:00,84.1,51.1,30.12,SSW,203,7.0,-999.0,32,0.00,,,0.00,Wunderground v.1.15,2013-05-13 22:25:00,
2013-05-13 17:30:00,84.1,51.1,30.12,SSW,203,7.0,-999.0,32,0.00,,,0.00,Wunderground v.1.15,2013-05-13 22:30:00,
2013-05-13 17:35:00,84.1,51.1,30.12,SSW,203,7.0,-999.0,32,0.00,,,0.00,Wunderground v.1.15,2013-05-13 22:35:00,
2013-05-13 17:40:00,84.1,50.2,30.11,SW,225,7.0,-999.0,31,0.00,,,0.00,Wunderground v.1.15,2013-05-13 22:40:00,
2013-05-13 17:45:00,84.1,50.2,30.11,SW,225,7.0,-999.0,31,0.00,,,0.00,Wunderground v.1.15,2013-05-13 22:45:00,
2013-05-13 17:50:00,84.1,50.2,30.11,SW,225,7.0,-999.0,31,0.00,,,0.00,Wunderground v.1.15,2013-05-13 22:50:00,
2013-05-13 17:55:00,83.7,49.0,30.11,SW,225,7.0,-999.0,30,0.00,,,0.00,Wunderground v.1.15,2013-05-13 22:55:00,
2013-05-13 18:00:00,83.7,49.0,30.11,SW,225,7.0,-999.0,30,0.00,,,0.00,Wunderground v.1.15,2013-05-13 23:00:00,
2013-05-13 18:05:00,83.7,49.0,30.11,SW,225,7.0,-999.0,30,0.00,,,0.00,Wunderground v.1.15,2013-05-13 23:05:00,
2013-05-13 18:10:00,83.5,47.9,30.11,SSW,203,7.0,-999.0,29,0.00,,,0.00,Wunderground v.1.15,2013-05-13 23:10:00,
2013-05-13 18:15:00,83.5,47.9,30.11,SSW,203,7.0,-999.0,29,0.00,,,0.00,Wunderground v.1.15,2013-05-13 23:15:00,
2013-05-13 18:20:00,83.5,47.9,30.11,SSW,203,7.0,-999.0,29,0.00,,,0.00,Wunderground v.1.15,2013-05-13 23:20:00,
2013-05-13 18:25:00,83.2,50.3,30.10,SW,225,7.0,-999.0,32,0.00,,,0.00,Wunderground v.1.15,2013-05-13 23:25:00,
2013-05-13 18:30:00,83.2,50.3,30.10,SW,225,7.0,-999.0,32,0.00,,,0.00,Wunderground v.1.15,2013-05-13 23:30:00,
2013-05-13 18:35:00,83.2,50.3,30.10,SW,225,7.0,-999.0,32,0.00,,,0.00,Wunderground v.1.15,2013-05-13 23:35:00,
2013-05-13 18:40:00,82.7,52.3,30.10,SSW,203,6.0,-999.0,35,0.00,,,0.00,Wunderground v.1.15,2013-05-13 23:40:00,
2013-05-13 18:45:00,82.7,52.3,30.10,SSW,203,6.0,-999.0,35,0.00,,,0.00,Wunderground v.1.15,2013-05-13 23:45:00,
2013-05-13 18:50:00,82.7,52.3,30.10,SSW,203,6.0,-999.0,35,0.00,,,0.00,Wunderground v.1.15,2013-05-13 23:50:00,
2013-05-13 18:55:00,82.0,52.4,30.10,SSW,203,6.0,-999.0,36,0.00,,,0.00,Wunderground v.1.15,2013-05-13 23:55:00,
2013-05-13 19:00:00,82.0,52.4,30.10,SSW,203,6.0,-999.0,36,0.00,,,0.00,Wunderground v.1.15,2013-05-14 00:00:00,
2013-05-13 19:05:00,82.0,52.4,30.10,SSW,203,6.0,-999.0,36,0.00,,,0.00,Wunderground v.1.15,2013-05-14 00:05:00,
2013-05-13 19:10:00,81.2,53.9,30.10,SW,225,5.0,-999.0,39,0.00,,,0.00,Wunderground v.1.15,2013-05-14 00:10:00,
2013-05-13 19:15:00,81.2,53.9,30.10,SW,225,5.0,-999.0,39,0.00,,,0.00,Wunderground v.1.15,2013-05-14 00:15:00,
2013-05-13 19:20:00,81.2,53.9,30.10,SW,225,5.0,-999.0,39,0.00,,,0.00,Wunderground v.1.15,2013-05-14 00:20:00,
2013-05-13 19:25:00,79.9,54.8,30.10,SW,225,3.0,-999.0,42,0.00,,,0.00,Wunderground v.1.15,2013-05-14 00:25:00,
2013-05-13 19:30:00,79.9,54.8,30.10,SW,225,3.0,-999.0,42,0.00,,,0.00,Wunderground v.1.15,2013-05-14 00:30:00,
2013-05-13 19:35:00,79.9,54.8,30.10,SW,225,3.0,-999.0,42,0.00,,,0.00,Wunderground v.1.15,2013-05-14 00:35:00,
2013-05-13 19:40:00,76.6,54.9,30.10,SW,225,2.0,-999.0,47,0.00,,,0.00,Wunderground v.1.15,2013-05-14 00:40:00,
2013-05-13 19:45:00,76.6,54.9,30.10,SW,225,2.0,-999.0,47,0.00,,,0.00,Wunderground v.1.15,2013-05-14 00:45:00,
2013-05-13 19:50:00,76.6,54.9,30.10,SW,225,2.0,-999.0,47,0.00,,,0.00,Wunderground v.1.15,2013-05-14 00:50:00,
2013-05-13 19:55:00,74.1,54.3,30.10,SW,225,1.0,-999.0,50,0.00,,,0.00,Wunderground v.1.15,2013-05-14 00:55:00,
2013-05-13 20:00:00,74.1,54.3,30.10,SW,225,1.0,-999.0,50,0.00,,,0.00,Wunderground v.1.15,2013-05-14 01:00:00,
2013-05-13 20:05:00,74.1,54.3,30.10,SW,225,1.0,-999.0,50,0.00,,,0.00,Wunderground v.1.15,2013-05-14 01:05:00,
2013-05-13 20:10:00,71.7,55.2,30.11,SW,225,0.0,-999.0,56,0.00,,,0.00,Wunderground v.1.15,2013-05-14 01:10:00,
2013-05-13 20:15:00,71.7,55.2,30.11,SW,225,0.0,-999.0,56,0.00,,,0.00,Wunderground v.1.15,2013-05-14 01:15:00,
2013-05-13 20:20:00,71.7,55.2,30.11,SW,225,0.0,-999.0,56,0.00,,,0.00,Wunderground v.1.15,2013-05-14 01:20:00,
2013-05-13 20:25:00,69.7,54.7,30.11,SW,225,1.0,-999.0,59,0.00,,,0.00,Wunderground v.1.15,2013-05-14 01:25:00,
2013-05-13 20:30:00,69.7,54.7,30.11,SW,225,1.0,-999.0,59,0.00,,,0.00,Wunderground v.1.15,2013-05-14 01:30:00,
2013-05-13 20:35:00,69.7,54.7,30.11,SW,225,1.0,-999.0,59,0.00,,,0.00,Wunderground v.1.15,2013-05-14 01:35:00,
2013-05-13 20:40:00,68.2,53.8,30.12,SW,225,1.0,-999.0,60,0.00,,,0.00,Wunderground v.1.15,2013-05-14 01:40:00,
2013-05-13 20:45:00,68.2,53.8,30.12,SW,225,1.0,-999.0,60,0.00,,,0.00,Wunderground v.1.15,2013-05-14 01:45:00,
2013-05-13 20:50:00,68.2,53.8,30.12,SW,225,1.0,-999.0,60,0.00,,,0.00,Wunderground v.1.15,2013-05-14 01:50:00,
2013-05-13 20:55:00,67.2,52.8,30.12,SW,225,1.0,-999.0,60,0.00,,,0.00,Wunderground v.1.15,2013-05-14 01:55:00,
2013-05-13 21:00:00,67.2,52.8,30.12,SW,225,1.0,-999.0,60,0.00,,,0.00,Wunderground v.1.15,2013-05-14 02:00:00,
2013-05-13 21:05:00,67.2,52.8,30.12,SW,225,1.0,-999.0,60,0.00,,,0.00,Wunderground v.1.15,2013-05-14 02:05:00,
2013-05-13 21:10:00,66.6,51.8,30.13,SW,225,2.0,-999.0,59,0.00,,,0.00,Wunderground v.1.15,2013-05-14 02:10:00,
2013-05-13 21:15:00,66.6,51.8,30.13,SW,225,2.0,-999.0,59,0.00,,,0.00,Wunderground v.1.15,2013-05-14 02:15:00,
2013-05-13 21:20:00,66.6,51.8,30.13,SW,225,2.0,-999.0,59,0.00,,,0.00,Wunderground v.1.15,2013-05-14 02:20:00,
2013-05-13 21:25:00,65.9,52.5,30.13,SW,225,2.0,-999.0,62,0.00,,,0.00,Wunderground v.1.15,2013-05-14 02:25:00,
2013-05-13 21:30:00,65.9,52.5,30.13,SW,225,2.0,-999.0,62,0.00,,,0.00,Wunderground v.1.15,2013-05-14 02:30:00,
2013-05-13 21:35:00,65.9,52.5,30.13,SW,225,2.0,-999.0,62,0.00,,,0.00,Wunderground v.1.15,2013-05-14 02:35:00,
2013-05-13 21:40:00,64.8,52.8,30.13,SW,225,1.0,-999.0,65,0.00,,,0.00,Wunderground v.1.15,2013-05-14 02:40:00,
2013-05-13 21:45:00,64.8,52.8,30.13,SW,225,1.0,-999.0,65,0.00,,,0.00,Wunderground v.1.15,2013-05-14 02:45:00,
2013-05-13 21:50:00,64.8,52.8,30.13,SW,225,1.0,-999.0,65,0.00,,,0.00,Wunderground v.1.15,2013-05-14 02:50:00,
2013-05-13 21:55:00,65.0,52.1,30.13,SW,225,2.0,-999.0,63,0.00,,,0.00,Wunderground v.1.15,2013-05-14 02:55:00,
2013-05-13 22:00:00,65.0,52.1,30.13,SW,225,2.0,-999.0,63,0.00,,,0.00,Wunderground v.1.15,2013-05-14 03:00:00,
2013-05-13 22:05:00,65.0,52.1,30.13,SW,225,2.0,-999.0,63,0.00,,,0.00,Wunderground v.1.15,2013-05-14 03:05:00,
2013-05-13 22:10:00,65.2,52.3,30.14,SW,225,2.0,-999.0,63,0.00,,,0.00,Wunderground v.1.15,2013-05-14 03:10:00,
2013-05-13 22:15:00,65.2,52.3,30.14,SW,225,2.0,-999.0,63,0.00,,,0.00,Wunderground v.1.15,2013-05-14 03:15:00,
2013-05-13 22:20:00,65.2,52.3,30.14,SW,225,2.0,-999.0,63,0.00,,,0.00,Wunderground v.1.15,2013-05-14 03:20:00,
2013-05-13 22:25:00,65.6,52.7,30.14,SW,225,2.0,-999.0,63,0.00,,,0.00,Wunderground v.1.15,2013-05-14 03:25:00,
2013-05-13 22:30:00,65.6,52.7,30.14,SW,225,2.0,-999.0,63,0.00,,,0.00,Wunderground v.1.15,2013-05-14 03:30:00,
2013-05-13 22:35:00,65.6,52.7,30.14,SW,225,2.0,-999.0,63,0.00,,,0.00,Wunderground v.1.15,2013-05-14 03:35:00,
2013-05-13 22:40:00,65.2,53.1,30.14,SW,225,2.0,-999.0,65,0.00,,,0.00,Wunderground v.1.15,2013-05-14 03:40:00,
2013-05-13 22:45:00,65.2,53.1,30.14,SW,225,2.0,-999.0,65,0.00,,,0.00,Wunderground v.1.15,2013-05-14 03:45:00,
2013-05-13 22:50:00,65.2,53.1,30.14,SW,225,2.0,-999.0,65,0.00,,,0.00,Wunderground v.1.15,2013-05-14 03:50:00,
2013-05-13 22:55:00,64.7,53.9,30.15,SW,225,1.0,-999.0,68,0.00,,,0.00,Wunderground v.1.15,2013-05-14 03:55:00,
2013-05-13 23:00:00,64.7,53.9,30.15,SW,225,1.0,-999.0,68,0.00,,,0.00,Wunderground v.1.15,2013-05-14 04:00:00,
2013-05-13 23:05:00,64.7,53.9,30.15,SW,225,1.0,-999.0,68,0.00,,,0.00,Wunderground v.1.15,2013-05-14 04:05:00,
2013-05-13 23:10:00,64.5,54.1,30.15,SW,225,1.0,-999.0,69,0.00,,,0.00,Wunderground v.1.15,2013-05-14 04:10:00,
2013-05-13 23:15:00,64.5,54.1,30.15,SW,225,1.0,-999.0,69,0.00,,,0.00,Wunderground v.1.15,2013-05-14 04:15:00,
2013-05-13 23:20:00,64.5,54.1,30.15,SW,225,1.0,-999.0,69,0.00,,,0.00,Wunderground v.1.15,2013-05-14 04:20:00,
2013-05-13 23:25:00,64.9,54.9,30.14,SW,225,2.0,-999.0,70,0.00,,,0.00,Wunderground v.1.15,2013-05-14 04:25:00,
2013-05-13 23:30:00,64.9,54.9,30.14,SW,225,2.0,-999.0,70,0.00,,,0.00,Wunderground v.1.15,2013-05-14 04:30:00,
2013-05-13 23:35:00,64.9,54.9,30.14,SW,225,2.0,-999.0,70,0.00,,,0.00,Wunderground v.1.15,2013-05-14 04:35:00,
2013-05-13 23:40:00,65.9,55.4,30.15,SW,225,3.0,-999.0,69,0.00,,,0.00,Wunderground v.1.15,2013-05-14 04:40:00,
2013-05-13 23:45:00,65.9,55.4,30.15,SW,225,3.0,-999.0,69,0.00,,,0.00,Wunderground v.1.15,2013-05-14 04:45:00,
2013-05-13 23:50:00,65.9,55.4,30.15,SW,225,3.0,-999.0,69,0.00,,,0.00,Wunderground v.1.15,2013-05-14 04:50:00,
2013-05-13 23:55:00,66.4,55.5,30.14,SW,225,5.0,-999.0,68,0.00,,,0.00,Wunderground v.1.15,2013-05-14 04:55:00,